Location: Arborea
(39.7744°N, 8.5819°E)
Time: 00:45:01
(UTC+00:00)

FALCON 9 DEB - Pass Details

Date: 24 October 2021
Orbit: 418 x 427 km, 53.0° (Epoch: 27 November)

Event Time Altitude Azimuth Distance (km) Brightness Sun altitude
Rises 18:19:11 0° 223° (SW) 2,381 7.5 -20.9°
Reaches altitude 10° 18:21:17 10° 221° (SW) 1,519 6.4 -21.3°
Enters shadow 18:23:48 45° 206° (SSW) 597 3.9 -21.8°
